CZ-6A DEB, 54890

Orbit data source: Space-Track

CZ-6A DEB, 54890 is space debris in SSO originally from a launch on Fri, 11 Nov 2022 UTC launched from the Taiyaun Space Center, China (TSC). Debris objects in space refer to the collection of defunct objects orbiting the Earth. Examples of debris include non-operational satellites, rocket bodies, and fragments generated from explosions, collisions, or faulty payload assembly.

Loading next visibility...
Identifier
54890, 2022-151QB
Orbit
SSO
Country
Flag of CNCN / PRC
Related business
Manufacturer
SAST
Mission
Spacecraft
Bus & Motor
Unknown
Mass
Unknown
Launch date (UTC)
2022-11-11 (3 years ago)
Launch vehicle
Unknown
Launch site
Taiyaun Space Center, China (TSC)
Object type
Payload
Rocket body
Debris
Shape & HBR
Unknown shape, 0.1 m
Radar Cross Section
Small (<0.1 m²)

Expand to show TLE details & history
Last TLE update: 1 day ago

TLE from 1 day ago
0 CZ-6A DEB
1 54890U 22151QB  25354.12802869  .00048932  00000-0  34647-2 0  9994
2 54890  98.6413  62.1249 0034722  62.7553 297.7201 15.04150441164687
Epoch: 2025-12-20T03:04Z
TLE epoch observation values (Epoch: 2025-12-20T03:04:21.678Z)
Latitude
0.00003°
Longitude
-72.92471°
Altitude
546.013 km
Speed
7.595 km/s
True Right ascension
04h 08m 29s
True Declination
0° 00' 00"
Sunlit
Object was in full shadow at epoch
Visualization orbit readout
Latitude
Unknown
Longitude
Unknown
Altitude
Unknown
Speed
Unknown
Apparent Right ascension
Unknown
Apparent Declination
Unknown
Sunlit
N/A
Visualization observer readout
Local Sidereal Time
13:57:01
Azimuth
Unknown
Elevation
Unknown
Doppler factor
Unknown
Orbital elements
Apogee altitude
575.218 km
Perigee altitude
527.099 km
Semi-major axis
6,929.295 km
Eccentricity
0.00347
Inclination
98.6413°
RAAN
62.1249°
Arg. of periapsis
62.7553°
True anomaly
297.36717°
Mean anomaly
297.7201°
Eccentric anomaly
297.54371°
Mean motion
3.76279 °/min
Orbital period
95.67 mins
BSTAR
0.0034647
Loading maneuver chart data...
Computing Atmospheric mass density...
Loading historical data...
Loading historical data...
Loading historical data...
Loading historical data...
Loading historical data...
Loading historical data...
Loading historical data...

Documentation

Showing up to 5 results
|